Location: Little Cypress
(30.1590°N, 93.7750°W)
Time: 00:05:42
(UTC-05:00)

Daily predictions for brighter satellites

Satellite Brightness Start Highest point End
(mag) Time Altitude Azimuth Time Altitude Azimuth Time Altitude Azimuth
H-2A R/B 3.8 00:12:25 25° WNW 00:12:25 25° WNW 00:15:44 10° NW
ATLAS 2AS CENTAUR R/B 2.9 00:16:57 78° NW 00:16:57 78° NW 00:24:42 10° NNE
Cosmos 2237 Rocket 3.3 00:15:52 10° NNW 00:19:39 41° N 00:19:39 41° N
Lacrosse 4 Rocket 4.3 00:44:51 10° N 00:45:57 15° NNE 00:45:57 15° NNE
ATLAS 3B R/B 3.6 00:42:21 10° NNW 00:48:24 38° NE 00:48:24 38° NE
Cosmos 2227 Rocket 4.0 00:54:43 23° WNW 00:54:43 23° WNW 00:58:54 10° N
Cosmos 2333 Rocket 3.9 00:58:27 10° NW 01:01:13 27° NW 01:01:13 27° NW
SL-16 R/B 3.6 01:06:14 10° NNW 01:09:30 36° N 01:09:30 36° N
Cosmos 2297 Rocket 4.2 01:22:46 19° NW 01:22:46 19° NW 01:26:22 10° NNW
COSMOS 2455 4.0 01:17:53 10° NNW 01:21:34 39° NNW 01:21:34 39° NNW
CZ-2C R/B 4.5 01:36:35 38° NNE 01:36:35 38° NNE 01:40:27 10° N
CZ-2C R/B 4.2 01:39:37 10° N 01:42:21 31° N 01:42:21 31° N
ATLAS 2A CENTAUR R/B 3.8 02:19:13 38° ESE 02:19:13 38° ESE 02:30:01 10° E
Centaur AC-119 4.5 02:22:29 65° SE 02:22:29 65° SE 02:45:15 10° E
CZ-4C R/B 3.5 02:29:40 10° NNW 02:36:47 51° ENE 02:40:37 29° ESE
ATLAS 3B R/B 4.4 02:33:26 10° NW 02:35:36 19° WNW 02:35:36 19° WNW
USA 238 DEB 4.0 02:32:07 10° NNW 02:37:39 58° NW 02:37:39 58° NW
USA 238 4.0 02:32:13 10° NNW 02:37:48 59° NW 02:37:48 59° NW
Cosmos 1727 Rocket 4.2 02:39:43 10° N 02:45:30 64° ENE 02:45:30 64° ENE
Cosmos 1844 Rocket 4.5 02:48:04 22° E 02:48:04 22° E 02:52:09 10° NE
Cosmos 2263 Rocket 2.9 02:50:00 49° NNW 02:50:00 49° NNW 02:54:22 10° NNE
ARIANE 5 R/B 4.4 02:49:56 10° NE 02:53:31 21° E 02:53:31 21° E
CZ-2D R/B 4.3 02:51:27 10° ENE 02:54:47 16° E 02:55:50 15° ESE
USA 234 3.6 02:51:13 22° ESE 02:55:29 62° NE 03:01:55 10° NNW
H-2A R/B 3.3 02:56:59 60° SSE 02:56:59 60° SSE 03:19:16 10° ESE
Iridium 4 Rocket 4.4 02:52:21 10° N 02:55:32 43° NNE 02:55:32 43° NNE
NOSS 3-2 (C) 4.3 03:05:29 10° NNW 03:13:08 65° ENE 03:21:12 10° SE
IRS-1C 4.2 03:10:32 10° NNE 03:15:22 72° NE 03:15:22 72° NE
SL-16 R/B 4.2 03:13:26 10° SE 03:18:39 29° ENE 03:23:51 10° NNE
Meteor 1-18 Rocket 4.3 03:16:37 10° N 03:22:17 72° E 03:22:39 70° ESE
Cosmos 1943 4.1 03:17:05 10° NNW 03:20:39 36° NW 03:20:39 36° NW
Cosmos 2056 Rocket 4.0 03:23:52 50° NW 03:23:52 50° NW 03:28:18 10° N
H-2A R/B 4.4 03:01:49 10° WNW 03:24:34 37° WSW 03:24:34 37° WSW
Spot 4 Rocket 4.0 03:27:03 10° NNE 03:32:05 83° ENE 03:32:05 83° ENE
OAO 2 Rocket 3.5 03:34:02 69° NNW 03:34:20 71° NNE 03:39:26 10° E
SL-08 R/B 3.9 03:35:46 48° NW 03:35:46 48° NW 03:39:32 10° NNW
NOSS 3-2 (A) 3.9 03:31:02 10° NNW 03:38:45 74° WSW 03:42:41 34° SSE
Okean 1 Rocket 3.4 03:42:19 60° N 03:42:19 60° N 03:46:00 10° N
Meteor 1-11 Rocket 4.3 03:39:52 41° SE 03:41:36 55° E 03:47:24 10° NNE
Cosmos 407 Rocket 4.1 03:36:47 10° N 03:41:50 52° ENE 03:44:08 30° SE
Okean O Rocket 4.0 03:41:30 10° ENE 03:44:12 16° E 03:46:11 12° SE
Cosmos 1821 Rocket 3.9 03:45:49 58° SSW 03:47:10 84° W 03:53:36 10° N
SL-27 R/B 4.0 03:44:58 10° N 03:48:21 34° ENE 03:48:43 33° E
Delta 2 Rocket 3.9 03:49:02 59° SW 03:49:45 63° S 03:55:49 10° ESE
Resurs 1-4 Rocket 2.4 03:44:41 10° NNE 03:49:57 60° E 03:51:14 46° SSE
ERS-1 4.4 03:45:28 10° N 03:50:39 69° WNW 03:50:56 68° W
BREEZE-M DEB (TANK) 4.3 03:52:10 39° SSE 03:52:52 42° SE 03:56:28 10° ENE
NOSS 2-2 (C) 3.8 03:53:24 54° ESE 03:53:24 54° ESE 03:57:27 10° NE
IRS-1D 3.4 03:48:26 10° NNE 03:53:31 83° ESE 03:54:11 67° S
GP-B 3.8 03:49:22 10° N 03:52:45 42° NW 03:52:45 42° NW
Okean 1 3.9 03:49:49 10° N 03:52:52 51° NNW 03:52:52 51° NNW
Cosmos 1400 Rocket 4.5 03:54:15 24° ESE 03:55:10 26° E 03:58:27 10° NE
Cosmos 1867 3.4 03:50:13 10° NNW 03:55:40 74° WSW 03:56:28 62° S
Tiangong 1 4.2 03:57:28 10° NNW 03:59:22 15° NNE 04:01:16 10° ENE
TIMED 4.4 03:59:35 85° NW 03:59:35 85° NW 04:03:55 10° NNE
Cosmos 1633 3.5 04:01:29 40° ESE 04:01:40 41° E 04:05:04 10° NNE
SME Rocket 4.1 04:00:38 19° SE 04:02:56 38° ENE 04:06:27 10° N
Cosmos 1812 4.0 04:00:02 10° NNW 04:02:23 32° NW 04:02:23 32° NW
Yuri Rocket 3.4 04:03:44 61° SSW 04:04:06 63° S 04:08:37 10° E
Hubble Space Telescope 1.9 04:06:39 33° SE 04:06:39 33° SE 04:09:10 10° ESE
BREEZE-M DEB (TANK) 2.3 04:12:58 54° E 04:12:58 54° E 04:15:10 10° ENE
CZ-2D R/B 4.1 04:08:49 10° NNE 04:12:40 46° E 04:13:53 34° SSE
Cosmos 1954 Rocket 4.4 04:10:22 10° N 04:15:29 62° ENE 04:20:35 10° SSE
Meteor 2-14 Rocket 4.4 04:13:32 42° SSW 04:15:35 69° W 04:21:38 10° N
Cosmos 1356 4.0 04:19:09 47° SE 04:19:46 55° E 04:23:16 10° NNE
NOSS 2-2 (E) 3.5 04:19:17 56° W 04:19:49 62° WNW 04:24:17 10° NNE
Cosmos 1461 3.4 04:18:29 41° S 04:19:56 62° ESE 04:24:34 10° NE
Sakura Rocket 3.8 04:19:24 43° WSW 04:20:52 55° SSW 04:27:49 10° ESE
CZ-4C R/B 3.7 04:18:53 10° NW 04:25:11 30° WSW 04:25:37 29° WSW
Cosmos 1025 Rocket 2.9 04:23:37 10° N 04:27:55 84° E 04:30:08 28° S
BREEZE-M TANK 4.0 04:25:41 10° NNW 04:27:58 29° NE 04:31:39 10° E
USA 129 4.1 04:29:05 23° ENE 04:29:05 23° ENE 04:30:52 10° NNE
Cosmos 1452 Rocket 4.5 04:28:29 28° W 04:29:32 30° WNW 04:34:09 10° N
Cosmos 1844 3.9 04:27:35 37° SW 04:29:36 56° WNW 04:35:13 10° N
OTV 4 2.4 04:28:39 16° NW 04:30:26 27° NNE 04:33:01 10° ENE
COSMOS 2487 4.4 04:27:59 10° N 04:31:13 30° ENE 04:34:26 10° SE
Cosmos 1844 Rocket 3.4 04:29:45 31° WSW 04:31:29 38° WNW 04:36:45 10° N
ARIANE 5 R/B 3.3 04:28:19 10° N 04:32:44 32° WNW 04:33:52 29° W
Meteor 2-15 4.4 04:27:15 10° N 04:33:24 75° W 04:38:13 17° S
Cosmos 1544 Rocket 3.5 04:33:00 36° SSW 04:34:47 81° W 04:39:13 10° N
CZ-2D R/B 2.5 04:29:46 10° N 04:34:59 48° WNW 04:37:10 31° SW
MTI 3.7 04:37:18 49° S 04:38:06 76° WSW 04:41:25 10° NNW
COSMOS 2406 3.4 04:32:42 10° NNW 04:38:16 51° WSW 04:42:24 18° S
Cosmos 2100 Rocket 4.5 04:32:19 10° S 04:38:22 59° E 04:44:31 10° NNE
USA 234 4.0 04:38:24 27° SW 04:38:37 27° WSW 04:44:02 10° WNW
Cosmos 2297 4.3 04:36:23 17° S 04:40:38 53° ESE 04:46:08 10° NNE
Centaur AC-125 2.3 04:40:42 44° SSW 04:41:03 47° S 04:46:44 10° ESE
Cosmos 1420 Rocket 4.4 04:41:24 30° SW 04:43:34 47° WNW 04:48:41 10° N
Cosmos 1536 3.5 04:43:08 34° WSW 04:43:50 36° W 04:47:38 10° NNW
Skynet4D Del rocket 3.6 04:41:19 30° WSW 04:43:56 61° S 04:49:38 10° E
Meteor 1-5 Rocket 4.4 04:39:15 16° S 04:44:02 82° E 04:49:54 10° N
Cosmos 1459 Rocket 4.5 04:38:11 10° S 04:44:27 63° E 04:50:42 10° NNE
Cosmos 2278 Rocket 2.3 04:42:23 28° SW 04:45:19 63° WNW 04:50:57 10° NNE
CZ-3 Stage 3 3.8 04:49:05 11° SSE 04:49:05 11° SSE 04:49:12 10° SSE
OAO 3 Copernicus 4.2 04:44:58 30° WSW 04:47:26 76° SSE 04:52:28 10° ENE
CZ-2C R/B 3.8 04:51:37 10° SSE 04:56:17 86° ENE 05:01:04 10° NNW
Cosmos 2061 Rocket 4.1 04:50:02 10° S 04:56:18 79° E 05:02:39 10° N
Cosmos 1023 Rocket 4.3 04:55:38 10° NNW 05:00:42 72° WSW 05:05:45 10° S
Cosmos 1892 Rocket 3.6 04:57:15 10° NNW 05:01:31 57° W 05:05:21 12° S
SL-16 R/B 3.1 04:57:55 17° SSW 05:02:02 35° W 05:07:42 10° NW
Cosmos 1331 Rocket 4.5 04:57:43 10° S 05:02:53 60° ESE 05:08:01 10° NNE
Okean-O 3.6 04:59:32 10° NNE 05:03:47 45° E 05:08:01 10° S
Cosmos 724 4.5 04:58:01 10° NW 05:03:59 55° WSW 05:10:00 10° S
UNKNOWN OBJECT B 4.3 05:01:06 10° NNW 05:04:22 23° WNW 05:05:51 19° WSW
Meteor 2-4 Rocket 3.6 04:59:41 10° NNW 05:04:59 59° W 05:10:12 10° S
CZ-4B R/B 3.3 04:59:49 10° N 05:05:28 74° WNW 05:10:45 12° SSW
PSLV R/B 4.3 05:02:01 10° N 05:05:59 45° WNW 05:08:33 20° SW
Cosmos 1447 Rocket 4.4 05:00:07 10° NNW 05:06:13 65° W 05:12:15 10° S
ATLAS 5 CENTAUR R/B 4.2 05:01:23 10° N 05:06:57 35° NE 05:12:46 10° ESE
CENTAUR R/B 3.1 05:01:33 10° NNW 05:09:38 83° WSW 05:17:57 10° SSE
Cosmos 2082 Rocket 4.4 05:04:49 10° N 05:09:42 28° ENE 05:14:33 10° ESE
NOSS 5 (C) 4.4 05:08:04 18° SSW 05:10:40 77° ESE 05:13:49 10° NNE
Cosmos 1741 Rocket 4.0 05:13:45 10° NNW 05:18:58 67° WSW 05:24:09 10° S
Cosmos 1850 Rocket 4.0 05:13:49 10° NNW 05:19:00 64° WSW 05:24:12 10° S
OAO 2 Rocket 3.8 05:14:15 10° W 05:19:01 39° SSW 05:23:42 10° SE
Cosmos 1140 Rocket 3.8 05:14:53 10° NNW 05:19:44 44° WSW 05:24:34 10° S
Okean O Rocket 2.5 05:16:45 10° N 05:20:34 31° WNW 05:23:39 14° SW
APEX 2.3 05:19:56 16° SSW 05:21:55 72° WNW 05:24:50 10° NNE
Cosmos 1500 3.9 05:23:00 10° S 05:26:47 56° E 05:30:35 10° NNE
Resurs 1-4 Rocket 4.0 05:26:49 10° NW 05:29:11 13° WNW 05:31:33 10° W
Cosmos 2098 Rocket 4.3 05:26:57 10° SSE 05:29:39 30° E 05:32:44 10° NNE
ADEOS Rocket 3.9 05:25:16 10° NNE 05:30:33 46° E 05:36:08 10° S
Orbus 7S 4.4 05:28:24 13° SW 05:30:40 35° SSE 05:36:11 10° E
Cosmos 1602 Rocket 3.5 05:29:23 10° N 05:33:42 76° W 05:38:02 10° S
MOZ.5/SAFIR/RUBIN 5/SL-8 4.1 05:30:46 10° S 05:35:21 47° W 05:39:58 10° NNW
Tiangong 1 1.0 05:33:12 10° WNW 05:36:15 90° SW 05:39:19 10° SE
Cosmos 1302 Rocket 4.2 05:32:15 10° S 05:37:25 75° ESE 05:42:38 10° NNE
CZ-4B R/B 4.0 05:33:22 10° N 05:37:27 34° WNW 05:41:28 10° SW
Meteor PRIRODA 3.8 05:36:01 10° NNE 05:39:43 76° E 05:43:22 10° S
Meteor 1-31 Rocket 3.9 05:39:35 10° NNE 05:43:25 46° E 05:47:11 10° S
Cosmos 2016 Rocket 4.2 05:38:11 10° SSW 05:44:24 57° W 05:50:35 10° N
Hubble Space Telescope 2.1 05:42:48 10° WSW 05:46:02 22° SSW 05:49:16 10° SSE
Delta 2 Rocket 4.4 05:42:12 10° W 05:48:00 39° SSW 05:53:31 10° SE
NAVSTAR 52 R/B(PAM-D 4.4 05:46:26 10° SW 05:48:46 46° SSE 05:51:58 10° ENE
